This is the latest recevied weather packets stored in our database for station/object HB9FHL-13. If no packets are shown the sender has not sent any weather packets the latest 10 day(s).
| Time | Temp. | Humidity | Pressure | Rain* | Wind** | Luminosity | Snow |
|---|---|---|---|---|---|---|---|
| 1777142485 | 16.11° C | - | 1016.9 hPa | 0 mm | - | - | - |
| 1777142341 | 16.11° C | - | 1016.9 hPa | 0 mm | - | - | - |
| 1777142041 | 16.11° C | - | 1017.7 hPa | 0 mm | - | - | - |
| 1777141738 | 17.22° C | - | 1015.5 hPa | 0 mm | - | - | - |
| 1777141438 | 16.67° C | - | 1019.7 hPa | 0 mm | - | - | - |
| 1777140836 | 16.67° C | - | 1016.7 hPa | 0 mm | - | - | - |
| 1777140534 | 17.22° C | - | 1012.5 hPa | 0 mm | - | - | - |
| 1777140233 | 16.67° C | - | 1019.6 hPa | 0 mm | - | - | - |
| 1777139932 | 17.78° C | - | 1022.8 hPa | 0 mm | - | - | - |
| 1777139628 | 17.22° C | - | 1015.3 hPa | 0 mm | - | - | - |
| 1777139328 | 18.89° C | - | 1014.7 hPa | 0 mm | - | - | - |
| 1777139201 | 18.33° C | - | 1015.3 hPa | 0 mm | - | - | - |
| 1777139028 | 18.33° C | - | 1015.3 hPa | 0 mm | - | - | - |
| 1777138726 | 18.33° C | - | 1018.6 hPa | 0 mm | - | - | - |
| 1777138426 | 18.33° C | - | 1017.3 hPa | 0 mm | - | - | - |
| 1777138126 | 18.33° C | - | 1012.5 hPa | 0 mm | - | - | - |
| 1777137936 | 18.89° C | - | 1015.7 hPa | 0 mm | - | - | - |
| 1777137825 | 18.89° C | - | 1015.7 hPa | 0 mm | - | - | - |
| 1777137525 | 17.78° C | - | 1011.9 hPa | 0 mm | - | - | - |
| 1777137224 | 18.89° C | - | 1016.6 hPa | 0 mm | - | - | - |
| 1777136923 | 18.33° C | - | 1017.4 hPa | 0 mm | - | - | - |
| 1777136623 | 18.33° C | - | 1018.4 hPa | 0 mm | - | - | - |
| 1777136322 | 18.33° C | - | 1016.5 hPa | 0 mm | - | - | - |
| 1777136022 | 18.89° C | - | 1019.1 hPa | 0 mm | - | - | - |
| 1777135721 | 19.44° C | - | 1017.4 hPa | 0 mm | - | - | - |
* Rain since midnight (hover to see other rain measurements)
** Current wind speed in m/s (hover to see current wind gust speed)